Clarksville, TN

12:10 PM CDT on April 25, 2017 (GMT -0500)
Outlaw

Weather History for KCKV - December, 2011

Change the Weather History Date:

Saturday, December 17, 2011

  Actual Average Record
Temperature  
Mean Temperature 33 °F 38 °F  
Max Temperature 43 °F 47 °F 74 °F (1984)
Min Temperature 23 °F 29 °F 8 °F (1972)
Degree Days  
Heating Degree Days 32    
Month to date heating degree days 405  
Since 1 July heating degree days 1088  
Cooling Degree Days 0    
Month to date cooling degree days 0  
Year to date cooling degree days  
Moisture  
Dew Point 27 °F    
Average Humidity 77    
Maximum Humidity 100    
Minimum Humidity 53    
Precipitation  
Precipitation 0.00 in 0.16 in 1.65 in (1961)
Month to date precipitation 4.00 3.04  
Year to date precipitation 48.19  
Sea Level Pressure  
Sea Level Pressure 30.37 in    
Wind  
Wind Speed 3 mph (WSW)    
Max Wind Speed 10 mph    
Max Gust Speed 14 mph    
Visibility 8 miles    
Events      
T = Trace of Precipitation, MM = Missing Value Source: NWS Daily Summary

Daily Weather History Graph

Daily Weather History Graph

Search for Another Location

Airport or City:

Trip Planner

Search our weather history database for the weather conditions in past years. The results will help you decide how hot, cold, wet, or windy it might be!

Date:

Astronomy

Dec. 17, 2011 Rise Set
Actual Time 6:55 AM CST 4:35 PM CST
Civil Twilight 6:26 AM CST 5:04 PM CST
Nautical Twilight 5:54 AM CST 5:36 PM CST
Astronomical Twilight 5:22 AM CST 6:08 PM CST
Moon No Moon Rise 11:21 AM CST (12/17)
Length of Visible Light 10h 37m
Length of Day
9h 39m
Waning Gibbous, 53% of the Moon is Illuminated
Dec 17
Waning Gibbous
Dec 17
Last Quarter
Dec 24
New
Jan 1
First Quarter
Jan 9
Full

Hourly Weather History & Observations

Time (CST) Temp. Windchill Dew Point Humidity Pressure Visibility Wind Dir Wind Speed Gust Speed Precip Events Conditions
12:52 AM 26.1 °F 21.9 °F 25.0 °F 96% 30.38 in 4.0 mi WSW 3.5 mph - N/A   Clear
1:52 AM 26.1 °F - 25.0 °F 96% 30.38 in 4.0 mi Calm Calm - N/A   Clear
2:12 AM 26.6 °F - 24.8 °F 93% 30.37 in 4.0 mi Calm Calm - N/A   Mostly Cloudy
2:45 AM 26.6 °F - 24.8 °F 93% 30.37 in 5.0 mi Calm Calm - N/A   Scattered Clouds
2:52 AM 26.1 °F - 25.0 °F 96% 30.38 in 5.0 mi Calm Calm - N/A   Partly Cloudy
3:52 AM 26.1 °F 21.9 °F 24.1 °F 92% 30.40 in 5.0 mi WNW 3.5 mph - N/A   Clear
4:52 AM 25.0 °F - 23.0 °F 92% 30.40 in 5.0 mi Calm Calm - N/A   Clear
5:52 AM 24.1 °F 19.7 °F 23.0 °F 96% 30.41 in 6.0 mi WNW 3.5 mph - N/A   Clear
6:52 AM 25.0 °F - 23.0 °F 92% 30.43 in 5.0 mi Calm Calm - N/A   Clear
7:52 AM 25.0 °F 20.7 °F 24.1 °F 96% 30.41 in 4.0 mi South 3.5 mph - N/A   Clear
8:52 AM 30.0 °F - 28.0 °F 92% 30.42 in 4.0 mi Calm Calm - N/A   Clear
9:52 AM 34.0 °F 31.0 °F 30.0 °F 85% 30.43 in 8.0 mi WSW 3.5 mph - N/A   Clear
10:52 AM 37.0 °F 33.3 °F 30.0 °F 76% 30.41 in 10.0 mi West 4.6 mph - N/A   Partly Cloudy
11:52 AM 39.9 °F 36.7 °F 30.9 °F 70% 30.38 in 10.0 mi West 4.6 mph - N/A   Clear
12:52 PM 41.0 °F 37.1 °F 28.0 °F 60% 30.35 in 10.0 mi SW 5.8 mph - N/A   Clear
1:52 PM 42.1 °F 37.7 °F 27.0 °F 55% 30.33 in 10.0 mi WSW 6.9 mph - N/A   Clear
2:52 PM 43.0 °F 39.5 °F 30.0 °F 60% 30.31 in 10.0 mi WSW 5.8 mph - N/A   Clear
3:52 PM 43.0 °F 39.5 °F 28.9 °F 58% 30.32 in 10.0 mi West 5.8 mph - N/A   Clear
4:52 PM 41.0 °F 38.0 °F 28.0 °F 60% 30.33 in 10.0 mi WSW 4.6 mph - N/A   Clear
5:52 PM 39.0 °F 36.8 °F 28.0 °F 65% 30.34 in 10.0 mi WSW 3.5 mph - N/A   Clear
6:52 PM 37.9 °F 34.4 °F 28.0 °F 68% 30.35 in 10.0 mi WSW 4.6 mph - N/A   Clear
7:52 PM 36.0 °F 32.1 °F 28.9 °F 76% 30.36 in 10.0 mi West 4.6 mph - N/A   Clear
8:52 PM 37.0 °F 34.5 °F 28.9 °F 73% 30.35 in 10.0 mi WSW 3.5 mph - N/A   Clear
9:52 PM 36.0 °F 33.3 °F 30.0 °F 79% 30.35 in 10.0 mi WSW 3.5 mph - N/A   Clear
10:52 PM 35.1 °F - 30.0 °F 82% 30.36 in 10.0 mi Calm Calm - N/A   Clear
11:52 PM 33.1 °F 28.7 °F 30.0 °F 89% 30.35 in 10.0 mi West 4.6 mph - N/A   Clear